Home   Weather   Oelde   Past weeks

Flag for Germany Past Weather in Oelde, North Rhine-Westphalia, Germany — Yesterday and Last 2 Weeks

Now
64 °F

Clear.


Feels Like: 64 °F
Forecast: 55 / 73 °F
Wind: 6 mph from Southwest

Location: Paderborn / Lippstadt

Current Time: Aug 31, 2016 at 11:57:37 PM

Latest Report: Aug 31, 2016 at 11:20 PM


Visibility: 10 mi

Pressure: 30.15 "Hg

Humidity: 64%

Dew Point: 52 °F

Location of OeldeLocation

Past Weather in Oelde — Graph

°F

Oelde Temperature Yesterday

Maximum temperature yesterday: 72 °F (at 2:20 PM)
Minimum temperature yesterday: 50 °F (at 6:20 AM)
Average temperature yesterday: 62 °F

High & Low Weather Summary for the Past Weeks

 TemperatureHumidityPressure
High91 °F (Aug 25, 4:20 PM)100% (Aug 27, 5:20 AM)30.36 "Hg (Aug 27, 5:20 AM)
Low48 °F (Aug 17, 5:20 AM)17% (Aug 25, 4:50 PM)29.80 "Hg (Aug 18, 3:50 PM)
Average68 °F62%30.07 "Hg
* Reported Aug 16 10:20 PM — Aug 31 10:20 PM, Oelde, Weather by CustomWeather, © 2016

Note: Actual official high and low records may vary slightly from our data, if they occured in-between our weather recording intervals... More about our weather records

Advertising

Oelde Weather History for the Previous 24 Hours

Scroll right to see more
 ConditionsComfort  
Time TempWeatherWind HumidityBarometerVisibility
10:20 PM
Wed, Aug 31
66 °FPassing clouds.3 mph60%30.12 "HgN/A
9:50 PM66 °FClear.3 mph60%30.12 "Hg10 mi
9:20 PM66 °FClear.3 mph60%30.12 "Hg10 mi
8:50 PM70 °FSunny.2 mph50%30.12 "Hg10 mi
8:20 PM73 °FPassing clouds.3 mph44%30.12 "HgN/A
7:50 PM75 °FPassing clouds.6 mph41%30.09 "HgN/A
7:20 PM77 °FPassing clouds.5 mph42%30.09 "HgN/A
6:50 PM77 °FPassing clouds.7 mph42%30.09 "HgN/A
6:20 PM79 °FPassing clouds.8 mph37%30.09 "HgN/A
5:50 PM79 °FSunny.7 mph37%30.09 "Hg10 mi
5:20 PM79 °FPassing clouds.7 mph37%30.12 "HgN/A
4:50 PM81 °FPassing clouds.6 mph34%30.09 "HgN/A
4:20 PM79 °FPassing clouds.9 mph37%30.12 "HgN/A
3:50 PM79 °FPassing clouds.10 mph39%30.12 "HgN/A
3:20 PM79 °FPassing clouds.8 mph37%30.12 "HgN/A
2:50 PM77 °FPassing clouds.7 mph39%30.12 "HgN/A
2:20 PM77 °FSunny.10 mph39%30.12 "Hg10 mi
1:50 PM79 °FPassing clouds.9 mph37%30.15 "HgN/A
1:20 PM77 °FSunny.9 mph39%30.15 "Hg10 mi
12:50 PM75 °FPassing clouds.7 mph41%30.15 "HgN/A
12:20 PM75 °FSunny.6 mph41%30.15 "Hg10 mi
11:50 AM75 °FPassing clouds.8 mph41%30.15 "HgN/A
11:20 AM73 °FPassing clouds.8 mph44%30.15 "HgN/A
10:50 AM72 °FPassing clouds.8 mph47%30.15 "HgN/A
10:20 AM70 °FPassing clouds.7 mph46%30.18 "HgN/A
9:50 AM68 °FSunny.7 mph49%30.18 "Hg10 mi
9:20 AM66 °FPassing clouds.6 mph49%30.18 "HgN/A
8:50 AM64 °FSunny.7 mph52%30.18 "Hg10 mi
8:20 AM61 °FSunny.6 mph55%30.18 "Hg10 mi
7:50 AM59 °FSunny.8 mph59%30.18 "Hg10 mi
7:20 AM59 °FClear.7 mph59%30.18 "Hg10 mi
6:50 AM57 °FClear.3 mph59%30.18 "Hg10 mi
6:20 AM57 °FClear.8 mph63%30.18 "Hg10 mi
5:50 AM57 °FClear.6 mph63%30.18 "Hg10 mi
5:20 AM57 °FClear.7 mph63%30.18 "Hg10 mi
4:50 AM57 °FClear.6 mph63%30.21 "Hg10 mi
4:20 AM55 °FClear.5 mph67%30.21 "Hg10 mi
3:50 AM54 °FClear.5 mph72%30.21 "Hg10 mi
3:20 AM54 °FClear.5 mph72%30.21 "Hg10 mi
2:50 AM55 °FClear.5 mph67%30.24 "Hg10 mi
2:20 AM54 °FClear.5 mph77%30.24 "Hg10 mi
1:50 AM54 °FClear.6 mph77%30.24 "Hg10 mi
1:20 AM54 °FClear.7 mph77%30.24 "Hg10 mi
12:50 AM54 °FClear.6 mph77%30.24 "Hg10 mi
12:20 AM57 °FClear.5 mph67%30.24 "Hg10 mi
11:50 PM
Tue, Aug 30
57 °FClear.6 mph72%30.24 "Hg10 mi
11:20 PM57 °FClear.6 mph72%30.24 "Hg10 mi
Weather by CustomWeather, © 2016

See weather overviewHow to use our weather pages